Terminal Aerodrome Forecast
Issued by NWS

Home | Current Version | Previous Version | Text Only | Print | Product List | Glossary On
Versions: 1 2 3 4 5 6 7 8 9 10 11 12 13 14 15 16 17 18 19 20
000
FTUS43 KILX 280200 AAA
TAFBMI
TAF AMD
KBMI 280232Z 2803/2824 31010KT P6SM FEW015
     FM280400 31010KT P6SM BKN015
     FM281000 31007KT P6SM SCT015 OVC120=

USA.gov is the U.S. government's official web portal to all federal, state and local government web resources and services.